Location: Brabourne
(51.1333°N, 1.0000°E)
Time: 16:30:57
(UTC+00:00)

SeaSat 1 - Pass Details

Date: 01 November 2021
Orbit: 743 x 747 km, 108.0° (Epoch: 30 November)

Event Time Altitude Azimuth Distance (km) Brightness Sun altitude
Exits shadow 20:22:51 11° 355° (N) 2,238 5.2 -36.5°
Drops below altitude 10° 20:22:59 10° 354° (N) 2,274 5.2 -36.5°
Sets 20:25:56 0° 335° (NNW) 3,205 6.3 -36.9°
